South Hill, VA

2:00 PM EST on December 08, 2019 (GMT -0500)
Mecklenburg-Brunswick Regional

Weather History for KAVC - September, 2019

Change the Weather History Date:

Thursday, September 12, 2019

  Actual Average (KEMV) Record (KEMV)
Temperature  
Mean Temperature 84 °F -  
Max Temperature 96 °F 86 °F 100 °F (1983)
Min Temperature 72 °F 59 °F 48 °F (2012)
Cooling Degree Days 19    
Growing Degree Days 34 (Base 50)    
Moisture  
Dew Point 71 °F    
Average Humidity 73    
Maximum Humidity 100    
Minimum Humidity 35    
Precipitation  
Precipitation 0.00 in - - ()
Sea Level Pressure  
Sea Level Pressure 30.16 in    
Wind  
Wind Speed 3 mph (West)    
Max Wind Speed 8 mph    
Max Gust Speed -    
Averages and records for this station are not official NWS values.
T = Trace of Precipitation, MM = Missing Value Source: NWS Daily Summary

Daily Weather History Graph

Daily Weather History Graph

Search for Another Location

Airport or City:

Astronomy

Sep. 12, 2019 Rise Set
Actual Time 6:51 AM EDT 7:24 PM EDT
Civil Twilight 6:25 AM EDT 7:50 PM EDT
Nautical Twilight 5:55 AM EDT 8:21 PM EDT
Astronomical Twilight 5:23 AM EDT 8:52 PM EDT
Moon 7:04 PM EDT (9/12) 5:14 AM EDT (9/12)
Length of Visible Light 13h 24m
Length of Day
12h 32m
Waxing Gibbous, 98% of the Moon is Illuminated
Sep 12
Waxing Gibbous
Sep 14
Full
Sep 21
Last Quarter
Sep 28
New
Oct 5
First Quarter

Hourly Weather History & Observations

Time (EDT) Temp. Heat Index Dew Point Humidity Pressure Visibility Wind Dir Wind Speed Gust Speed Precip Events Conditions
12:15 AM 76.6 °F - 74.8 °F 94% 30.19 in - South 6.9 mph - N/A   Unknown
12:35 AM 77.0 °F - 74.8 °F 93% 30.18 in - South 3.5 mph - N/A   Unknown
12:55 AM 77.0 °F - 75.0 °F 94% 30.19 in - Calm Calm - N/A   Unknown
1:15 AM 76.3 °F - 75.2 °F 96% 30.20 in - Calm Calm - N/A   Unknown
1:35 AM 76.6 °F - 75.2 °F 95% 30.19 in - Calm Calm - N/A   Unknown
1:55 AM 75.2 °F - 74.8 °F 99% 30.18 in - Calm Calm - N/A   Unknown
2:15 AM 76.1 °F - 74.8 °F 96% 30.18 in - Calm Calm - N/A   Unknown
2:35 AM 75.9 °F - 74.3 °F 95% 30.17 in - Calm Calm - N/A   Unknown
2:55 AM 75.2 °F - 74.5 °F 98% 30.16 in - Calm Calm - N/A   Unknown
3:15 AM 73.6 °F - 73.6 °F 100% 30.15 in - SSW 3.5 mph - N/A   Unknown
3:35 AM 74.3 °F - 73.4 °F 97% 30.15 in - South 3.5 mph - N/A   Unknown
3:55 AM 74.3 °F - 72.9 °F 95% 30.14 in - South 3.5 mph - N/A   Unknown
4:15 AM 73.9 °F - 72.9 °F 96% 30.14 in - Calm Calm - N/A   Unknown
4:35 AM 73.9 °F - 72.9 °F 96% 30.15 in - Calm Calm - N/A   Unknown
4:55 AM 73.8 °F - 72.7 °F 96% 30.15 in - Calm Calm - N/A   Unknown
5:15 AM 73.6 °F - 72.7 °F 97% 30.16 in - SW 3.5 mph - N/A   Unknown
5:35 AM 73.6 °F - 72.5 °F 96% 30.16 in - WSW 3.5 mph - N/A   Unknown
5:55 AM 73.4 °F - 72.1 °F 96% 30.17 in - Calm Calm - N/A   Unknown
6:15 AM 72.5 °F - 72.0 °F 98% 30.17 in - SW 3.5 mph - N/A   Unknown
6:35 AM 72.3 °F - 72.0 °F 99% 30.17 in - SW 3.5 mph - N/A   Unknown
6:55 AM 72.1 °F - 72.0 °F 99% 30.17 in - Calm Calm - N/A   Unknown
7:15 AM 73.0 °F - 72.0 °F 96% 30.18 in - Calm Calm - N/A   Unknown
7:35 AM 73.0 °F - 72.1 °F 97% 30.18 in - Calm Calm - N/A   Unknown
7:55 AM 73.4 °F - 72.3 °F 96% 30.19 in - SW 3.5 mph - N/A   Unknown
8:15 AM 75.2 °F - 72.7 °F 92% 30.19 in - WSW 3.5 mph - N/A   Unknown
8:35 AM 76.8 °F - 73.0 °F 88% 30.19 in - WSW 3.5 mph - N/A   Unknown
8:55 AM 78.8 °F - 72.9 °F 82% 30.19 in - WSW 3.5 mph - N/A   Clear
9:15 AM 80.2 °F 84.5 °F 72.9 °F 78% 30.19 in - West 3.5 mph - N/A   Clear
9:35 AM 81.7 °F 87.1 °F 73.4 °F 76% 30.19 in - West 3.5 mph - N/A   Clear
9:55 AM 82.6 °F 88.6 °F 73.4 °F 74% 30.20 in - West 8.1 mph - N/A   Clear
10:15 AM 83.8 °F 90.1 °F 73.2 °F 70% 30.19 in - West 4.6 mph - N/A   Clear
10:35 AM 85.5 °F 92.6 °F 73.2 °F 67% 30.19 in - WNW 4.6 mph - N/A   Clear
10:55 AM 86.4 °F 93.4 °F 72.9 °F 64% 30.19 in - West 4.6 mph - N/A   Clear
11:15 AM 87.6 °F 93.9 °F 71.8 °F 59% 30.19 in - Calm Calm - N/A   Clear
11:35 AM 88.9 °F 94.7 °F 70.7 °F 55% 30.18 in - Calm Calm - N/A   Clear
11:55 AM 89.8 °F 96.5 °F 71.4 °F 55% 30.18 in - North 6.9 mph - N/A   Clear
12:15 PM 90.7 °F 97.4 °F 71.6 °F 53% 30.18 in - NNW 8.1 mph - N/A   Clear
12:35 PM 91.6 °F 98.2 °F 70.9 °F 51% 30.17 in - NNE 4.6 mph - N/A   Clear
12:55 PM 91.4 °F 97.8 °F 70.7 °F 51% 30.17 in - ENE 3.5 mph - N/A   Clear
1:15 PM 92.8 °F 99.7 °F 70.9 °F 49% 30.16 in - Calm Calm - N/A   Scattered Clouds
1:35 PM 91.9 °F 96.9 °F 68.9 °F 47% 30.16 in - Calm Calm - N/A   Scattered Clouds
1:55 PM 94.1 °F 98.9 °F 68.2 °F 43% 30.15 in - Calm Calm - N/A   Clear
2:15 PM 93.9 °F 97.0 °F 66.2 °F 40% 30.14 in - NNE 3.5 mph - N/A   Clear
2:35 PM 94.6 °F 97.3 °F 65.3 °F 38% 30.14 in - NE 3.5 mph - N/A   Clear
2:55 PM 94.8 °F 97.6 °F 65.7 °F 38% 30.13 in - North 4.6 mph - N/A   Clear
3:15 PM 94.8 °F 97.1 °F 64.8 °F 37% 30.12 in - NE 5.8 mph - N/A   Clear
3:35 PM 95.2 °F 98.8 °F 66.6 °F 39% 30.12 in - NNE 6.9 mph - N/A   Scattered Clouds
3:55 PM 95.5 °F 98.4 °F 65.5 °F 37% 30.12 in - North 3.5 mph - N/A   Scattered Clouds
4:15 PM 96.1 °F 98.3 °F 64.6 °F 35% 30.12 in - WNW 4.6 mph - N/A   Scattered Clouds
4:35 PM 94.8 °F 97.1 °F 64.8 °F 37% 30.12 in - ENE 3.5 mph - N/A   Scattered Clouds
4:55 PM 95.4 °F 98.1 °F 64.9 °F 37% 30.11 in - North 6.9 mph - N/A   Clear
5:15 PM 94.6 °F 96.4 °F 64.0 °F 36% 30.11 in - Calm Calm - N/A   Clear
5:35 PM 94.1 °F 96.9 °F 65.3 °F 39% 30.11 in - North 4.6 mph - N/A   Clear
5:55 PM 93.6 °F 95.9 °F 64.9 °F 39% 30.11 in - Calm Calm - N/A   Clear
6:15 PM 93.6 °F 95.9 °F 64.9 °F 39% 30.11 in - Calm Calm - N/A   Clear
6:35 PM 92.5 °F 95.0 °F 65.5 °F 41% 30.11 in - Calm Calm - N/A   Clear
6:55 PM 89.1 °F 92.1 °F 67.3 °F 48% 30.12 in - Calm Calm - N/A   Clear
7:15 PM 85.5 °F 89.4 °F 69.3 °F 58% 30.12 in - Calm Calm - N/A   Mostly Cloudy
7:35 PM 82.9 °F 87.2 °F 70.3 °F 66% 30.12 in - Calm Calm - N/A   Mostly Cloudy
7:55 PM 82.2 °F 87.1 °F 72.0 °F 71% 30.13 in - Calm Calm - N/A   Overcast
8:15 PM 83.8 °F 88.6 °F 71.1 °F 65% 30.13 in - SSE 3.5 mph - N/A   Overcast
8:35 PM 82.8 °F 88.4 °F 72.9 °F 72% 30.14 in - SSE 5.8 mph - N/A   Scattered Clouds
8:55 PM 82.2 °F 88.0 °F 73.4 °F 75% 30.14 in - South 3.5 mph - N/A   Clear
9:15 PM 79.9 °F - 73.4 °F 80% 30.15 in - Calm Calm - N/A   Clear
9:35 PM 79.7 °F - 73.6 °F 81% 30.15 in - Calm Calm - N/A   Clear
9:55 PM 78.8 °F - 73.6 °F 84% 30.16 in - Calm Calm - N/A   Clear
10:15 PM 77.9 °F - 73.6 °F 86% 30.16 in - Calm Calm - N/A   Unknown
10:35 PM 77.2 °F - 73.8 °F 89% 30.16 in - Calm Calm - N/A   Unknown
10:55 PM 78.1 °F - 73.9 °F 87% 30.16 in - Calm Calm - N/A   Unknown
11:15 PM 75.6 °F - 73.8 °F 94% 30.15 in - Calm Calm - N/A   Unknown
11:35 PM 75.2 °F - 73.9 °F 96% 30.16 in - Calm Calm - N/A   Unknown
11:55 PM 74.3 °F - 73.6 °F 98% 30.15 in - Calm Calm - N/A   Unknown